Regional Weather Roundup
Issued by NWS

Home | Current Version | Previous Version | Text Only | Print | Product List | Glossary Off
Versions: 1 2 3 4 5 6 7 8 9 10 11 12 13 14 15 16 17 18 19 20 21 22 23 24 25 26 27 28 29 30 31 32 33 34 35 36 37 38 39 40 41 42 43 44 45 46 47 48 49 50

000
ASUS43 KDTX 310210
RWRMI
MICHIGAN HOURLY REGIONAL WEATHER ROUNDUP
NATIONAL WEATHER SERVICE DETROIT/PONTIAC MI
1000 PM EDT SAT AUG 30 2014

NOTE: "FAIR" INDICATES FEW OR NO CLOUDS BELOW 12,000 FEET WITH NO
SIGNIFICANT WEATHER AND/OR OBSTRUCTION TO VISIBILITY.

MIZ047>049-052>055-059>063-066>070-074>076-081>083-310300-
SOUTHEAST LOWER MICHIGAN

CITY           SKY/WX    TMP DP  RH WIND       PRES   REMARKS
ADRIAN         CLOUDY    77  69  76 SW15      29.95R
ALMA           MOCLDY    73  66  80 SW6       29.86S
ANN ARBOR      CLOUDY    74  68  81 SW7       29.92S
BAD AXE        CLOUDY    70  69  97 SW9       29.86R
CARO           CLOUDY    70  69  95 SW7       29.86R
DETROIT CITY   CLOUDY    81  68  64 SW21G28   29.91R
DETROIT        CLOUDY    78  69  73 S18       29.93R
FLINT          LGT RAIN  76  68  76 SW14G23   29.89R
GROSSE ILE     CLOUDY    79  70  73 SW10      29.92S
HILLSDALE      CLOUDY    76  71  83 SW8       29.94S
HOWELL         CLOUDY    75  68  78 SW7       29.90R

CITY           SKY/WX    TMP DP  RH WIND       PRES   REMARKS
JACKSON        CLOUDY    72  69  90 SW5       29.92R
LAMBERTVILLE   CLOUDY    77  68  73 SW8G20    29.95S
LANSING        CLOUDY    72  67  84 SW10      29.90R
LAPEER         FAIR      77  66  69 SW9       29.88R
MASON          CLOUDY    73  67  80 SW6       29.90S
MONROE         CLOUDY    77  68  73 SW12G17   29.92S
MT. CLEMENS    CLOUDY    80  67  65 SW15G23   29.90R
PONTIAC        CLOUDY    78  67  68 SW14G23   29.90R
PORT HOPE        N/A     72  66  81 VRB6      29.83R
PORT HURON     CLOUDY    75  70  83 S12G17    29.89S
TRI CITIES     MOCLDY    75  69  81 SW9       29.86R
TROY           CLOUDY    80  66  62 SW14G24   29.93R
SAGINAW HB     CLOUDY    73  73 100 SW9       29.85R
$$
MIZ043>046-050>051-056>058-064>065-071>073-077>080-310300-
SOUTHWEST LOWER MICHIGAN

CITY           SKY/WX    TMP DP  RH WIND       PRES   REMARKS
BATTLE CREEK   CLOUDY    71  66  84 SW8       29.90F
BENTON HARBOR  MOCLDY    72  70  93 S5        29.89R
BIG RAPIDS     PTCLDY    71  67  89 SW7       29.85R
COLDWATER      CLOUDY    73  71  94 SW5       29.93R
FREMONT        FAIR      69  67  91 SW6       29.86R
HOLLAND        PTCLDY    74  68  81 SW7       29.89R
GRAND RAPIDS   MOCLDY    74  70  87 SW7       29.88R
IONIA          FAIR      73  69  85 SW6       29.87R
KALAMAZOO      CLOUDY    69  66  90 SW6       29.91R FOG
LUDINGTON      CLOUDY    69  67  93 W6        29.85R
MARSHALL       LGT RAIN  73  68  84 SW8       29.91S
MOUNT PLEASANT PTCLDY    73  65  75 SW8       29.84S
MUSKEGON       MOCLDY    72  66  81 W8        29.87R
SOUTH HAVEN    MOCLDY    76  70  81 SW6       29.89S
$$
MIZ016>042-310300-
NORTHERN LOWER MICHIGAN

CITY           SKY/WX    TMP DP  RH WIND       PRES   REMARKS
ALPENA         LGT RAIN  70  68  93 SW7       29.78R
BEAVER ISLAND  CLOUDY    64  63  96 W9        29.78R
BELLAIRE       CLOUDY    69  64  82 SW9G16    29.80R
CADILLAC       CLOUDY    68  67  99 SW8       29.84S
CHARLEVOIX     CLOUDY    67  67  99 W10       29.81R FOG
FRANKFORT      LGT RAIN  66  62  85 CALM      29.84R
GAYLORD        CLOUDY    68  66  93 W18       29.81R
GRAYLING       PTCLDY    69  69  99 SW6       29.83R
HARBOR SPRINGS CLOUDY    68  66  93 W8        29.77R
HOUGHTON LAKE  CLOUDY    71  66  84 SW9       29.84R
MANISTEE       CLOUDY    68  64  88 NW9       29.84R
OSCODA         PTCLDY    69  68  98 SW6       29.80R
PELLSTON       CLOUDY    68  67  96 SW6       29.77R
ROGERS CITY    CLOUDY    68  68 100 SE6       29.78R
TRAVERSE CITY  CLOUDY    69  64  84 W5        29.81R
$$
MIZ007>008-015-310300-
EASTERN UPPER MICHIGAN

CITY           SKY/WX    TMP DP  RH WIND       PRES   REMARKS
KINROSS        CLOUDY    70  68  94 S3        29.75R
MACKINAC ISLAN CLOUDY    65  65 100 SW7       29.75S FOG
NEWBERRY       CLOUDY    62  62 100 NW8       29.76S
S. S. MARIE    CLOUDY    69  67  93 CALM      29.74R FOG
MUNISING         N/A     59  56  89 NW8       29.82R
$$
MIZ004>006-011>014-085-310300-
CENTRAL UPPER MICHIGAN

CITY           SKY/WX    TMP DP  RH WIND       PRES   REMARKS
MANISTIQUE     CLOUDY    59  58  99 NW12G18   29.79R
ESCANABA       CLOUDY    61  55  82 NW8       29.83R
MENOMINEE      CLOUDY    63  59  88 NW6       29.86R
SAWYER-GWINN   CLOUDY    59  57  94 N13       29.86R FOG
$$
MIZ001>003-009>011-084-310300-
WESTERN UPPER MICHIGAN

CITY           SKY/WX    TMP DP  RH WIND       PRES   REMARKS
IRON MOUNTAIN  CLOUDY    61  57  87 NW9       29.87R
HOUGHTON       CLOUDY    57  54  89 NW6       29.89R
COPPER HARBOR    N/A     58  54  86 N8        29.87R
$$

ABBREVIATIONS USED IN REMARKS
   TC - TEMPERATURE IN CELSIUS
  WCI - WIND CHILL INDEX
   HX - HEAT INDEX
  VSB - VISIBILITY




USA.gov is the U.S. government's official web portal to all federal, state and local government web resources and services.